User: anonymous   Login
Location: Unspecified
(0.0000°N, 0.0000°E)
Time: 23:08:07
(UTC+00:00)
Language:

YUBELEINY 2 - Orbit

View from above orbital plane
View from above orbital plane
View from above satellite
View from above satellite

Ground track
Ground track

The orbit data is extracted from the following two-line orbital elements,

1 38735U 12041C   21125.75912920  .00000012  00000-0  11813-4 0  9991
2 38735  82.4764 159.7178 0017311 174.5667 185.5603 12.42582849397884
Epoch (UTC): 05 May 2021 18:13:08
Eccentricity: 0.0017311
inclination: 82.4764°
perigee height: 1482 km
apogee height: 1509 km
right ascension of ascending node: 159.7178°
argument of perigee: 174.5667°
revolutions per day: 12.42582849
mean anomaly at epoch: 185.5603°
orbit number at epoch: 39788

The dashed part of the orbit path shows where the satellite is in the earth's shadow,  

DLR